CW2640 Weather Reports


Display with metric or nautical units.
time (UTC)temp
F
wind
direction
speed
MPH
gust
MPH
rain 1hr
in
rain 24hr
in
rain mn
in
humidity
%
barometer
mb
20260905141618 85 80 0.0 0.0 0.00 0.00 0.00 86 1015.5
20260905134618 80 80 0.0 0.0 0.00 0.00 0.00 94 1015.6
20260905131614 77 80 0.0 0.0 0.00 0.00 0.00 99 1015.6
20260905124612 74 80 0.0 0.0 0.00 0.00 0.00 99 1015.8
20260905121607 73 80 0.0 0.0 0.00 0.00 0.00 99 1015.6
20260905114601 72 80 0.0 0.0 0.00 0.00 0.00 99 1015.3
20260905111600 73 80 0.0 0.0 0.00 0.00 0.00 99 1014.8
20260905104555 73 80 0.0 0.0 0.00 0.00 0.00 99 1014.9
20260905101554 73 80 0.0 0.0 0.00 0.00 0.00 99 1014.7
20260905094551 73 80 0.0 0.0 0.00 0.00 0.00 99 1014.6
20260905091547 74 80 0.0 0.0 0.00 0.00 0.00 99 1014.5
20260905084543 74 80 0.0 0.0 0.00 0.00 0.00 99 1014.5
20260905081543 74 80 0.0 0.0 0.00 0.00 0.00 99 1014.3
20260905074543 75 80 0.0 0.0 0.00 0.00 0.00 99 1014.2
20260905071539 75 80 0.0 0.0 0.00 0.00 0.00 99 1014.3
20260905064535 75 80 0.0 0.0 0.00 0.00 0.00 99 1013.9
20260905061533 76 80 0.0 0.0 0.00 0.00 0.00 99 1014.2
20260905054531 77 80 0.0 0.0 0.00 0.00 0.00 99 1014.5
20260905051529 77 80 0.0 0.0 0.00 0.00 0.00 99 1014.3
20260905044526 77 85 0.0 0.0 0.00 0.00 0.00 98 1014.1
20260905041522 78 91 0.0 0.0 0.00 0.00 0.00 97 1014.6
20260905034521 79 99 0.0 0.0 0.00 0.00 0.00 95 1014.7
20260905031520 80 101 0.0 0.0 0.00 0.00 0.00 93 1014.8
20260905024518 80 101 0.0 0.0 0.00 0.00 0.00 92 1014.9
20260905021515 81 105 0.0 0.0 0.00 0.00 0.00 90 1015.0
20260905014510 82 107 0.0 0.0 0.00 0.00 0.00 88 1014.7
20260905011508 82 108 0.0 0.0 0.00 0.00 0.00 85 1014.6
20260905004502 84 105 0.0 0.0 0.00 0.00 0.00 81 1014.4
20260905001502 86 101 0.0 0.0 0.00 0.00 0.00 77 1014.6
20260904234500 89 97 0.0 0.0 0.00 0.00 0.00 71 1014.7
20260904231459 92 93 0.0 0.0 0.00 0.00 0.00 62 1014.4
20260904224459 94 86 0.0 0.0 0.00 0.00 0.00 56 1013.9
20260904221456 96 80 0.0 0.0 0.00 0.00 0.00 50 1013.8
20260904214455 97 80 0.0 0.0 0.00 0.00 0.00 52 1013.8
20260904211451 98 80 0.0 0.0 0.00 0.00 0.00 52 1013.8
20260904204448 98 80 0.0 0.0 0.00 0.00 0.00 51 1013.9
20260904201446 98 80 0.0 0.0 0.00 0.00 0.00 51 1014.4
20260904194444 98 80 0.0 0.0 0.00 0.00 0.00 51 1014.9
20260904191441 97 80 0.0 0.0 0.00 0.00 0.00 52 1015.3
20260904184436 98 80 0.0 0.0 0.00 0.00 0.00 53 1015.9
20260904181436 96 80 0.0 0.0 0.00 0.00 0.00 54 1016.4
20260904174432 96 80 0.0 0.0 0.00 0.00 0.00 57 1016.6
20260904171427 97 80 0.0 0.0 0.00 0.00 0.00 57 1017.0
20260904164424 94 80 0.0 0.0 0.00 0.00 0.00 60 1017.4
20260904161423 93 80 0.0 0.0 0.00 0.00 0.00 62 1017.6
20260904154420 91 80 0.0 0.0 0.00 0.00 0.00 64 1018.1
20260904151420 90 80 0.0 0.0 0.00 0.00 0.00 68 1017.8
20260904144419 89 80 0.0 0.0 0.00 0.00 0.00 70 1017.6